When you browse on this site, cookies collect data to enhance your experience and personalize the content and advertising you see.
Visit our Privacy Policy to learn more. By continuing to use the site, you agree to this use of cookies and data.
EN

Hourly Weather Alhos Vedros

Today, 11 August, Tuesday

Time Temperature Precipitation Wind Pressure Humidity
00:00 +18°C° 0 mm 3 mps 758 mmHg 93%
01:00 +18°C° 0 mm 3 mps 758 mmHg 92%
02:00 +18°C° 0 mm 3 mps 757 mmHg 92%
03:00 +19°C° 0 mm 3 mps 757 mmHg 90%
04:00 +19°C° 0 mm 2 mps 758 mmHg 88%
05:00 +20°C° 0 mm 2 mps 758 mmHg 85%
06:00 +21°C° 0 mm 2 mps 758 mmHg 80%
07:00 +22°C° 0 mm 3 mps 758 mmHg 75%
08:00 +24°C° 0 mm 3 mps 758 mmHg 70%
09:00 +25°C° 0 mm 3 mps 758 mmHg 64%
10:00 +27°C° 0 mm 3 mps 758 mmHg 58%
11:00 +29°C° 0 mm 4 mps 758 mmHg 51%
12:00 +28°C° 0 mm 5 mps 758 mmHg 52%
13:00 +28°C° 0 mm 6 mps 758 mmHg 53%
14:00 +28°C° 0 mm 6 mps 758 mmHg 54%
15:00 +27°C° 0 mm 6 mps 758 mmHg 59%
16:00 +26°C° 0 mm 6 mps 758 mmHg 64%
17:00 +24°C° 0 mm 6 mps 758 mmHg 69%
18:00 +22°C° 0 mm 6 mps 759 mmHg 75%
19:00 +21°C° 0 mm 6 mps 759 mmHg 82%
20:00 +20°C° 0 mm 5 mps 759 mmHg 88%
21:00 +20°C° 0 mm 5 mps 760 mmHg 89%
22:00 +20°C° 0 mm 5 mps 760 mmHg 89%
23:00 +20°C° 0 mm 4 mps 760 mmHg 89%

Tomorrow, 12 August, Wednesday

Time Temperature Precipitation Wind Pressure Humidity
00:00 +20°C° 0 mm 4 mps 760 mmHg 89%
01:00 +20°C° 0 mm 4 mps 760 mmHg 89%
02:00 +20°C° 0 mm 4 mps 760 mmHg 88%
03:00 +20°C° 0.1 mm 4 mps 760 mmHg 89%
04:00 +20°C° 0.1 mm 4 mps 760 mmHg 89%
05:00 +20°C° 0.1 mm 3 mps 760 mmHg 89%
06:00 +21°C° 0.1 mm 3 mps 760 mmHg 85%
07:00 +22°C° 0.1 mm 4 mps 760 mmHg 81%
08:00 +23°C° 0.1 mm 4 mps 761 mmHg 77%
09:00 +25°C° 0.1 mm 4 mps 761 mmHg 70%
10:00 +26°C° 0.1 mm 5 mps 761 mmHg 64%
11:00 +27°C° 0.1 mm 5 mps 761 mmHg 58%
12:00 +27°C° 0 mm 5 mps 761 mmHg 57%
13:00 +27°C° 0 mm 6 mps 761 mmHg 56%
14:00 +28°C° 0 mm 6 mps 761 mmHg 56%
15:00 +27°C° 0 mm 7 mps 761 mmHg 59%
16:00 +26°C° 0 mm 7 mps 761 mmHg 62%
17:00 +24°C° 0 mm 7 mps 761 mmHg 66%
18:00 +23°C° 0 mm 6 mps 761 mmHg 71%
19:00 +21°C° 0 mm 6 mps 762 mmHg 77%
20:00 +20°C° 0 mm 5 mps 762 mmHg 82%
21:00 +19°C° 0 mm 5 mps 762 mmHg 85%
22:00 +19°C° 0 mm 4 mps 762 mmHg 89%
23:00 +18°C° 0 mm 4 mps 762 mmHg 92%

Day after tomorrow, 13 August, Thursday

Time Temperature Precipitation Wind Pressure Humidity
00:00 +18°C° 0 mm 4 mps 762 mmHg 93%
01:00 +18°C° 0 mm 4 mps 762 mmHg 93%
02:00 +18°C° 0 mm 4 mps 761 mmHg 93%
03:00 +18°C° 0 mm 4 mps 761 mmHg 93%
04:00 +18°C° 0 mm 4 mps 762 mmHg 93%
05:00 +18°C° 0 mm 4 mps 762 mmHg 92%
06:00 +19°C° 0 mm 4 mps 762 mmHg 83%
07:00 +21°C° 0 mm 5 mps 762 mmHg 73%
08:00 +23°C° 0 mm 5 mps 762 mmHg 63%
09:00 +26°C° 0 mm 5 mps 762 mmHg 56%
10:00 +28°C° 0 mm 5 mps 762 mmHg 49%
11:00 +29°C° 0 mm 6 mps 762 mmHg 42%
12:00 +30°C° 0 mm 6 mps 762 mmHg 42%
13:00 +30°C° 0 mm 7 mps 761 mmHg 41%
14:00 +30°C° 0 mm 7 mps 761 mmHg 40%
15:00 +29°C° 0 mm 7 mps 761 mmHg 43%
16:00 +27°C° 0 mm 8 mps 761 mmHg 47%
17:00 +26°C° 0 mm 8 mps 761 mmHg 50%
18:00 +23°C° 0 mm 7 mps 762 mmHg 59%
19:00 +21°C° 0 mm 6 mps 762 mmHg 68%
20:00 +19°C° 0 mm 5 mps 763 mmHg 77%
21:00 +19°C° 0 mm 5 mps 762 mmHg 81%
22:00 +17°C° 0 mm 5 mps 762 mmHg 85%
23:00 +18°C° 0 mm 4 mps 762 mmHg 88%

14 August, Friday

Time Temperature Precipitation Wind Pressure Humidity
00:00 +18°C° 0 mm 4 mps 762 mmHg 89%
01:00 +18°C° 0 mm 4 mps 762 mmHg 90%
02:00 +17°C° 0 mm 4 mps 762 mmHg 91%
03:00 +17°C° 0 mm 4 mps 762 mmHg 92%
04:00 +17°C° 0 mm 4 mps 762 mmHg 93%
05:00 +17°C° 0 mm 3 mps 762 mmHg 94%
06:00 +19°C° 0 mm 4 mps 762 mmHg 83%
07:00 +21°C° 0 mm 4 mps 762 mmHg 73%
08:00 +23°C° 0 mm 4 mps 762 mmHg 63%
09:00 +26°C° 0 mm 5 mps 762 mmHg 55%
10:00 +27°C° 0 mm 5 mps 762 mmHg 48%
11:00 +29°C° 0 mm 5 mps 762 mmHg 40%
12:00 +29°C° 0 mm 6 mps 762 mmHg 40%
13:00 +29°C° 0 mm 6 mps 761 mmHg 40%
14:00 +29°C° 0 mm 7 mps 761 mmHg 40%
15:00 +28°C° 0 mm 7 mps 761 mmHg 44%
16:00 +27°C° 0 mm 7 mps 761 mmHg 48%
17:00 +26°C° 0 mm 7 mps 761 mmHg 53%
18:00 +23°C° 0 mm 6 mps 762 mmHg 63%
19:00 +21°C° 0 mm 4 mps 762 mmHg 73%
20:00 +19°C° 0 mm 3 mps 762 mmHg 83%
21:00 +19°C° 0 mm 3 mps 762 mmHg 86%
22:00 +18°C° 0 mm 3 mps 762 mmHg 89%
23:00 +18°C° 0 mm 3 mps 762 mmHg 92%

15 August, Saturday

Time Temperature Precipitation Wind Pressure Humidity
00:00 +18°C° 0 mm 3 mps 762 mmHg 92%
01:00 +17°C° 0 mm 3 mps 762 mmHg 91%
02:00 +17°C° 0 mm 3 mps 761 mmHg 91%
03:00 +17°C° 0 mm 3 mps 761 mmHg 91%
04:00 +17°C° 0 mm 2 mps 761 mmHg 92%
05:00 +17°C° 0 mm 2 mps 761 mmHg 93%
06:00 +19°C° 0 mm 3 mps 761 mmHg 82%
07:00 +21°C° 0 mm 3 mps 762 mmHg 71%
08:00 +24°C° 0 mm 3 mps 762 mmHg 60%
09:00 +26°C° 0 mm 4 mps 762 mmHg 54%
10:00 +27°C° 0 mm 4 mps 762 mmHg 49%
11:00 +28°C° 0 mm 5 mps 762 mmHg 43%
12:00 +28°C° 0 mm 5 mps 761 mmHg 43%
13:00 +28°C° 0 mm 6 mps 761 mmHg 43%
14:00 +28°C° 0 mm 7 mps 761 mmHg 43%
15:00 +27°C° 0 mm 7 mps 761 mmHg 47%
16:00 +26°C° 0 mm 7 mps 761 mmHg 50%
17:00 +24°C° 0 mm 7 mps 761 mmHg 53%
18:00 +22°C° 0 mm 6 mps 761 mmHg 62%
19:00 +21°C° 0 mm 5 mps 762 mmHg 71%
20:00 +19°C° 0 mm 5 mps 762 mmHg 81%
21:00 +19°C° 0 mm 4 mps 762 mmHg 84%
22:00 +18°C° 0 mm 4 mps 762 mmHg 86%
23:00 +18°C° 0 mm 4 mps 762 mmHg 89%

16 August, Sunday

Time Temperature Precipitation Wind Pressure Humidity
00:00 +18°C° 0 mm 4 mps 762 mmHg 89%
01:00 +18°C° 0 mm 4 mps 762 mmHg 90%
02:00 +17°C° 0 mm 4 mps 762 mmHg 90%
03:00 +17°C° 0 mm 4 mps 762 mmHg 90%
04:00 +17°C° 0 mm 4 mps 762 mmHg 90%
05:00 +17°C° 0 mm 4 mps 762 mmHg 91%
06:00 +19°C° 0 mm 4 mps 762 mmHg 80%
07:00 +21°C° 0 mm 5 mps 762 mmHg 70%
08:00 +22°C° 0 mm 5 mps 762 mmHg 59%
09:00 +25°C° 0 mm 5 mps 762 mmHg 52%
10:00 +26°C° 0 mm 6 mps 762 mmHg 46%
11:00 +28°C° 0 mm 6 mps 762 mmHg 39%
12:00 +28°C° 0 mm 7 mps 762 mmHg 38%
13:00 +28°C° 0 mm 7 mps 762 mmHg 37%
14:00 +28°C° 0 mm 8 mps 762 mmHg 36%
15:00 +26°C° 0 mm 8 mps 762 mmHg 43%
16:00 +24°C° 0 mm 8 mps 762 mmHg 50%
17:00 +23°C° 0 mm 7 mps 762 mmHg 57%
18:00 +21°C° 0 mm 7 mps 762 mmHg 64%
19:00 +20°C° 0 mm 6 mps 762 mmHg 71%
20:00 +17°C° 0 mm 5 mps 763 mmHg 78%
21:00 +17°C° 0 mm 5 mps 763 mmHg 80%
22:00 +17°C° 0 mm 5 mps 763 mmHg 82%
23:00 +17°C° 0 mm 5 mps 762 mmHg 84%
Show more